| time (UTC) | temp C | wind direction | speed KPH | gust KPH | rain 1hr cm | rain 24hr cm | rain mn cm | humidity % | barometer mb |
| 20260505041318 | 10 | 355 | 0.0 | 0.0 | 0.00 | 0.00 | 0.00 | 84 | 1015.6 |
| 20260505040815 | 10 | 355 | 0.0 | 0.0 | 0.00 | 0.00 | 0.00 | 83 | 1015.6 |
| 20260505040313 | 10 | 351 | 0.0 | 0.0 | 0.00 | 0.00 | 0.00 | 83 | 1015.4 |
| 20260505035809 | 10 | 351 | 0.0 | 0.0 | 0.00 | 0.00 | 0.00 | 83 | 1015.5 |
| 20260505035305 | 10 | 351 | 0.0 | 0.0 | 0.00 | 0.00 | 0.00 | 82 | 1015.5 |
| 20260505034803 | 10 | 351 | 0.0 | 0.0 | 0.00 | 0.00 | 0.00 | 81 | 1015.3 |
| 20260505034259 | 10 | 351 | 0.0 | 0.0 | 0.00 | 0.00 | 0.00 | 81 | 1015.4 |
| 20260505033756 | 10 | 351 | 0.0 | 0.0 | 0.00 | 0.00 | 0.00 | 81 | 1015.4 |
| 20260505033253 | 10 | 351 | 0.0 | 0.0 | 0.00 | 0.00 | 0.00 | 79 | 1015.7 |
| 20260505032751 | 11 | 351 | 0.0 | 0.0 | 0.00 | 0.00 | 0.00 | 78 | 1015.8 |
| 20260505032247 | 11 | 350 | 0.0 | 0.0 | 0.00 | 0.00 | 0.00 | 76 | 1015.6 |
| 20260505031744 | 11 | 350 | 0.0 | 0.0 | 0.00 | 0.00 | 0.00 | 74 | 1015.7 |
| 20260505031241 | 11 | 353 | 0.0 | 0.0 | 0.00 | 0.00 | 0.00 | 75 | 1015.7 |
| 20260505030738 | 12 | 353 | 0.0 | 0.0 | 0.00 | 0.00 | 0.00 | 75 | 1015.6 |
| 20260505030234 | 11 | 353 | 0.0 | 0.0 | 0.00 | 0.00 | 0.00 | 73 | 1015.7 |
| 20260505025730 | 11 | 353 | 0.0 | 0.0 | 0.00 | 0.00 | 0.00 | 74 | 1015.5 |
| 20260505025228 | 11 | 353 | 0.0 | 0.0 | 0.00 | 0.00 | 0.00 | 74 | 1015.7 |
| 20260505024726 | 12 | 353 | 0.0 | 0.0 | 0.00 | 0.00 | 0.00 | 74 | 1015.5 |
| 20260505024223 | 12 | 352 | 0.0 | 0.0 | 0.00 | 0.00 | 0.00 | 72 | 1015.5 |
| 20260505023720 | 13 | 351 | 0.0 | 0.0 | 0.00 | 0.00 | 0.00 | 70 | 1015.5 |
| 20260505023217 | 13 | 351 | 0.0 | 0.0 | 0.00 | 0.00 | 0.00 | 67 | 1015.4 |
| 20260505022715 | 13 | 357 | 0.0 | 0.0 | 0.00 | 0.00 | 0.00 | 65 | 1015.5 |
| 20260505022211 | 13 | 357 | 0.0 | 0.0 | 0.00 | 0.00 | 0.00 | 62 | 1015.4 |
| 20260505021708 | 13 | 357 | 0.0 | 0.0 | 0.00 | 0.00 | 0.00 | 67 | 1015.3 |
| 20260505021205 | 13 | 357 | 0.0 | 0.0 | 0.00 | 0.00 | 0.00 | 65 | 1015.4 |
| 20260505020701 | 13 | 357 | 0.0 | 0.0 | 0.00 | 0.00 | 0.00 | 67 | 1015.5 |
| 20260505020156 | 13 | 340 | 0.0 | 0.0 | 0.00 | 0.00 | 0.00 | 65 | 1015.5 |
| 20260505015654 | 13 | 340 | 0.0 | 0.0 | 0.00 | 0.00 | 0.00 | 65 | 1015.2 |
| 20260505015150 | 13 | 340 | 0.0 | 0.0 | 0.00 | 0.00 | 0.00 | 63 | 1015.2 |
| 20260505014648 | 13 | 340 | 0.0 | 0.0 | 0.00 | 0.00 | 0.00 | 61 | 1015.2 |
| 20260505014145 | 14 | 340 | 0.0 | 0.0 | 0.00 | 0.00 | 0.00 | 63 | 1015.3 |
| 20260505013642 | 14 | 340 | 0.0 | 0.0 | 0.00 | 0.00 | 0.00 | 63 | 1015.2 |
| 20260505013139 | 14 | 340 | 0.0 | 0.0 | 0.00 | 0.00 | 0.00 | 63 | 1015.2 |
| 20260505012638 | 14 | 340 | 0.0 | 0.0 | 0.00 | 0.00 | 0.00 | 66 | 1015.2 |
| 20260505012134 | 14 | 340 | 0.0 | 0.0 | 0.00 | 0.00 | 0.00 | 64 | 1015.0 |
| 20260505011630 | 15 | 340 | 0.0 | 0.0 | 0.00 | 0.00 | 0.00 | 61 | 1014.9 |
| 20260505011128 | 15 | 340 | 0.0 | 0.0 | 0.00 | 0.00 | 0.00 | 61 | 1014.9 |
| 20260505010627 | 15 | 340 | 0.0 | 0.0 | 0.00 | 0.00 | 0.00 | 58 | 1015.0 |
| 20260505010125 | 15 | 340 | 0.0 | 0.0 | 0.00 | 0.00 | 0.00 | 56 | 1014.8 |
| 20260505005620 | 16 | 340 | 0.0 | 0.0 | 0.00 | 0.00 | 0.00 | 56 | 1014.7 |
| 20260505005118 | 16 | 339 | 0.0 | 0.0 | 0.00 | 0.00 | 0.00 | 53 | 1014.6 |
| 20260505004615 | 17 | 340 | 0.0 | 0.0 | 0.00 | 0.00 | 0.00 | 53 | 1014.6 |
| 20260505004112 | 17 | 340 | 0.0 | 0.0 | 0.00 | 0.00 | 0.00 | 53 | 1014.6 |
| 20260505003609 | 17 | 340 | 0.0 | 0.0 | 0.00 | 0.00 | 0.00 | 52 | 1014.3 |
| 20260505003106 | 17 | 340 | 0.0 | 0.0 | 0.00 | 0.00 | 0.00 | 54 | 1014.1 |
| 20260505002602 | 18 | 339 | 0.0 | 0.0 | 0.00 | 0.00 | 0.00 | 50 | 1014.1 |
| 20260505002101 | 18 | 339 | 0.0 | 0.0 | 0.00 | 0.00 | 0.00 | 46 | 1014.8 |
| 20260505001557 | 19 | 339 | 0.0 | 0.0 | 0.00 | 0.00 | 0.00 | 44 | 1014.3 |
| 20260505001055 | 19 | 339 | 0.0 | 0.0 | 0.00 | 0.00 | 0.00 | 43 | 1014.3 |
| 20260505000552 | 20 | 339 | 0.0 | 0.0 | 0.00 | 0.00 | 0.00 | 42 | 1014.5 |
| 20260505000049 | 20 | 339 | 0.0 | 0.0 | 0.00 | 0.00 | 0.00 | 44 | 1014.2 |
| 20260504235546 | 20 | 339 | 0.0 | 0.0 | 0.00 | 0.00 | 0.00 | 41 | 1014.0 |
| 20260504235043 | 21 | 327 | 0.0 | 0.0 | 0.00 | 0.00 | 0.00 | 39 | 1014.3 |
| 20260504234540 | 21 | 318 | 0.0 | 0.0 | 0.00 | 0.00 | 0.00 | 41 | 1014.1 |
| 20260504234037 | 21 | 331 | 0.0 | 0.0 | 0.00 | 0.00 | 0.00 | 41 | 1014.2 |
| 20260504233532 | 21 | 313 | 0.0 | 0.0 | 0.00 | 0.00 | 0.00 | 40 | 1014.0 |
| 20260504233029 | 21 | 330 | 0.0 | 0.0 | 0.00 | 0.00 | 0.00 | 42 | 1013.9 |
| 20260504232526 | 21 | 350 | 0.0 | 0.0 | 0.00 | 0.00 | 0.00 | 41 | 1013.8 |
| 20260504232024 | 21 | 342 | 0.0 | 0.0 | 0.00 | 0.00 | 0.00 | 38 | 1014.0 |
| 20260504231520 | 21 | 343 | 0.0 | 0.0 | 0.00 | 0.00 | 0.00 | 40 | 1013.7 |
| 20260504231016 | 22 | 336 | 0.0 | 0.0 | 0.00 | 0.00 | 0.00 | 39 | 1013.7 |
| 20260504230513 | 22 | 320 | 0.0 | 0.0 | 0.00 | 0.00 | 0.00 | 37 | 1013.7 |
| 20260504230012 | 22 | 329 | 0.0 | 1.6 | 0.00 | 0.00 | 0.00 | 38 | 1013.8 |
| 20260504225508 | 23 | 331 | 0.0 | 0.0 | 0.00 | 0.00 | 0.00 | 36 | 1013.7 |
| 20260504225005 | 23 | 238 | 1.6 | 3.2 | 0.00 | 0.00 | 0.00 | 33 | 1013.7 |
| 20260504224502 | 23 | 199 | 0.0 | 1.6 | 0.00 | 0.00 | 0.00 | 34 | 1013.9 |
| 20260504223959 | 23 | 268 | 1.6 | 1.6 | 0.00 | 0.00 | 0.00 | 34 | 1013.8 |
| 20260504223455 | 23 | 210 | 1.6 | 3.2 | 0.00 | 0.00 | 0.00 | 35 | 1013.7 |
| 20260504222951 | 23 | 346 | 0.0 | 0.0 | 0.00 | 0.00 | 0.00 | 32 | 1013.9 |
| 20260504222449 | 23 | 304 | 1.6 | 3.2 | 0.00 | 0.00 | 0.00 | 35 | 1013.8 |
| 20260504221946 | 23 | 242 | 1.6 | 3.2 | 0.00 | 0.00 | 0.00 | 37 | 1013.4 |
| 20260504221443 | 23 | 268 | 0.0 | 1.6 | 0.00 | 0.00 | 0.00 | 35 | 1013.6 |
| 20260504220940 | 23 | 191 | 1.6 | 1.6 | 0.00 | 0.00 | 0.00 | 36 | 1013.7 |
| 20260504220436 | 23 | 316 | 0.0 | 0.0 | 0.00 | 0.00 | 0.00 | 34 | 1013.8 |
| 20260504215934 | 23 | 344 | 0.0 | 0.0 | 0.00 | 0.00 | 0.00 | 35 | 1013.9 |
| 20260504215431 | 23 | 259 | 1.6 | 3.2 | 0.00 | 0.00 | 0.00 | 35 | 1013.8 |
| 20260504214927 | 23 | 241 | 3.2 | 3.2 | 0.00 | 0.00 | 0.00 | 33 | 1013.9 |
| 20260504214423 | 23 | 303 | 1.6 | 1.6 | 0.00 | 0.00 | 0.00 | 33 | 1013.7 |
| 20260504213920 | 23 | 317 | 1.6 | 1.6 | 0.00 | 0.00 | 0.00 | 35 | 1013.7 |
| 20260504213416 | 23 | 314 | 0.0 | 0.0 | 0.00 | 0.00 | 0.00 | 36 | 1013.6 |
| 20260504212914 | 24 | 287 | 0.0 | 0.0 | 0.00 | 0.00 | 0.00 | 36 | 1013.9 |
| 20260504212409 | 24 | 255 | 3.2 | 4.8 | 0.00 | 0.00 | 0.00 | 35 | 1014.0 |
| 20260504211908 | 24 | 309 | 0.0 | 1.6 | 0.00 | 0.00 | 0.00 | 34 | 1013.8 |
| 20260504211403 | 24 | 292 | 3.2 | 3.2 | 0.00 | 0.00 | 0.00 | 33 | 1013.8 |
| 20260504210900 | 24 | 268 | 1.6 | 1.6 | 0.00 | 0.00 | 0.00 | 34 | 1013.9 |
| 20260504210357 | 23 | 348 | 0.0 | 0.0 | 0.00 | 0.00 | 0.00 | 35 | 1013.9 |
| 20260504205854 | 23 | 256 | 1.6 | 1.6 | 0.00 | 0.00 | 0.00 | 35 | 1013.7 |
| 20260504205352 | 23 | 240 | 1.6 | 1.6 | 0.00 | 0.00 | 0.00 | 35 | 1013.9 |
| 20260504204850 | 23 | 313 | 0.0 | 1.6 | 0.00 | 0.00 | 0.00 | 36 | 1014.1 |
| 20260504204348 | 24 | 310 | 1.6 | 1.6 | 0.00 | 0.00 | 0.00 | 34 | 1014.2 |
| 20260504203848 | 24 | 257 | 1.6 | 1.6 | 0.00 | 0.00 | 0.00 | 35 | 1014.0 |
| 20260504203344 | 24 | 285 | 0.0 | 1.6 | 0.00 | 0.00 | 0.00 | 34 | 1014.3 |
| 20260504202840 | 25 | 205 | 3.2 | 4.8 | 0.00 | 0.00 | 0.00 | 34 | 1014.5 |
| 20260504202337 | 25 | 223 | 1.6 | 1.6 | 0.00 | 0.00 | 0.00 | 33 | 1014.5 |
| 20260504201833 | 25 | 263 | 1.6 | 3.2 | 0.00 | 0.00 | 0.00 | 34 | 1014.6 |
| 20260504201331 | 26 | 264 | 1.6 | 1.6 | 0.00 | 0.00 | 0.00 | 34 | 1014.7 |
| 20260504200828 | 26 | 264 | 1.6 | 1.6 | 0.00 | 0.00 | 0.00 | 33 | 1014.5 |
| 20260504200325 | 25 | 283 | 1.6 | 1.6 | 0.00 | 0.00 | 0.00 | 32 | 1014.7 |
| 20260504195821 | 25 | 218 | 3.2 | 3.2 | 0.00 | 0.00 | 0.00 | 34 | 1014.8 |
| 20260504195317 | 25 | 215 | 3.2 | 3.2 | 0.00 | 0.00 | 0.00 | 33 | 1015.0 |
| 20260504194814 | 26 | 275 | 3.2 | 3.2 | 0.00 | 0.00 | 0.00 | 33 | 1014.9 |
| 20260504194310 | 26 | 262 | 3.2 | 3.2 | 0.00 | 0.00 | 0.00 | 33 | 1014.9 |
| 20260504193806 | 26 | 150 | 0.0 | 0.0 | 0.00 | 0.00 | 0.00 | 33 | 1015.1 |
| 20260504193304 | 25 | 278 | 1.6 | 1.6 | 0.00 | 0.00 | 0.00 | 34 | 1015.2 |
| 20260504192802 | 26 | 251 | 4.8 | 4.8 | 0.00 | 0.00 | 0.00 | 35 | 1015.1 |
| 20260504192300 | 26 | 254 | 1.6 | 1.6 | 0.00 | 0.00 | 0.00 | 32 | 1015.2 |
| 20260504191758 | 26 | 309 | 1.6 | 1.6 | 0.00 | 0.00 | 0.00 | 31 | 1015.3 |
| 20260504191255 | 25 | 187 | 3.2 | 4.8 | 0.00 | 0.00 | 0.00 | 35 | 1015.4 |
| 20260504190750 | 26 | 247 | 3.2 | 8.0 | 0.00 | 0.00 | 0.00 | 34 | 1015.5 |
| 20260504190247 | 26 | 243 | 0.0 | 1.6 | 0.00 | 0.00 | 0.00 | 32 | 1015.4 |
| 20260504185743 | 26 | 248 | 3.2 | 4.8 | 0.00 | 0.00 | 0.00 | 32 | 1015.7 |
| 20260504185241 | 26 | 252 | 1.6 | 3.2 | 0.00 | 0.00 | 0.00 | 35 | 1015.4 |
| 20260504184737 | 25 | 267 | 1.6 | 3.2 | 0.00 | 0.00 | 0.00 | 35 | 1015.4 |
| 20260504184233 | 26 | 323 | 1.6 | 3.2 | 0.00 | 0.00 | 0.00 | 35 | 1015.5 |
| 20260504183728 | 25 | 51 | 0.0 | 0.0 | 0.00 | 0.00 | 0.00 | 37 | 1015.7 |
| 20260504183226 | 25 | 258 | 3.2 | 3.2 | 0.00 | 0.00 | 0.00 | 37 | 1015.9 |
| 20260504182724 | 25 | 237 | 0.0 | 1.6 | 0.00 | 0.00 | 0.00 | 34 | 1015.9 |
| 20260504182221 | 25 | 309 | 0.0 | 0.0 | 0.00 | 0.00 | 0.00 | 37 | 1015.8 |
| 20260504181718 | 25 | 282 | 0.0 | 1.6 | 0.00 | 0.00 | 0.00 | 35 | 1015.8 |
| 20260504181216 | 25 | 15 | 1.6 | 1.6 | 0.00 | 0.00 | 0.00 | 37 | 1016.0 |
| 20260504180715 | 25 | 256 | 3.2 | 3.2 | 0.00 | 0.00 | 0.00 | 37 | 1016.0 |
| 20260504180213 | 25 | 267 | 3.2 | 3.2 | 0.00 | 0.00 | 0.00 | 36 | 1015.8 |
| 20260504175710 | 25 | 199 | 1.6 | 3.2 | 0.00 | 0.00 | 0.00 | 35 | 1015.8 |
| 20260504175206 | 25 | 78 | 1.6 | 1.6 | 0.00 | 0.00 | 0.00 | 37 | 1016.0 |
| 20260504174704 | 25 | 213 | 4.8 | 4.8 | 0.00 | 0.00 | 0.00 | 37 | 1015.8 |
| 20260504174202 | 24 | 316 | 0.0 | 1.6 | 0.00 | 0.00 | 0.00 | 36 | 1016.0 |
| 20260504173658 | 25 | 55 | 3.2 | 3.2 | 0.00 | 0.00 | 0.00 | 33 | 1016.1 |
| 20260504173155 | 25 | 230 | 3.2 | 3.2 | 0.00 | 0.00 | 0.00 | 36 | 1016.2 |
| 20260504172652 | 24 | 18 | 0.0 | 1.6 | 0.00 | 0.00 | 0.00 | 37 | 1016.2 |
| 20260504172148 | 25 | 240 | 3.2 | 3.2 | 0.00 | 0.00 | 0.00 | 38 | 1016.1 |
| 20260504171645 | 25 | 8 | 0.0 | 1.6 | 0.00 | 0.00 | 0.00 | 35 | 1016.2 |
| 20260504171142 | 25 | 254 | 1.6 | 1.6 | 0.00 | 0.00 | 0.00 | 38 | 1016.4 |
| 20260504170638 | 24 | 304 | 0.0 | 1.6 | 0.00 | 0.00 | 0.00 | 34 | 1016.5 |
| 20260504170136 | 24 | 302 | 0.0 | 1.6 | 0.00 | 0.00 | 0.00 | 37 | 1016.6 |
| 20260504151027 | 21 | 352 | 1.6 | 1.6 | 0.00 | 0.00 | 0.00 | 45 | 1018.0 |
| 20260504150525 | 21 | 292 | 1.6 | 1.6 | 0.00 | 0.00 | 0.00 | 43 | 1017.9 |
| 20260504140951 | 20 | 55 | 0.0 | 3.2 | 0.00 | 0.00 | 0.00 | 52 | 1017.8 |
| 20260504140447 | 18 | 7 | 0.0 | 1.6 | 0.00 | 0.00 | 0.00 | 54 | 1018.0 |
| 20260504130412 | 13 | 333 | 0.0 | 0.0 | 0.00 | 0.00 | 0.00 | 72 | 1017.8 |
| 20260504110259 | 2 | 0 | 0.0 | 0.0 | 0.00 | 0.00 | 0.00 | 99 | 1017.7 |
| 20260504100217 | 2 | 359 | 0.0 | 0.0 | 0.00 | 0.00 | 0.00 | 99 | 1017.5 |
| 20260504090139 | 3 | 359 | 0.0 | 0.0 | 0.00 | 0.00 | 0.00 | 99 | 1017.5 |
| 20260504081610 | 3 | 352 | 0.0 | 0.0 | 0.00 | 0.00 | 0.00 | 99 | 1017.4 |
| 20260504081106 | 3 | 352 | 0.0 | 0.0 | 0.00 | 0.00 | 0.00 | 99 | 1017.5 |
| 20260504080603 | 3 | 352 | 0.0 | 0.0 | 0.00 | 0.00 | 0.00 | 99 | 1017.4 |
| 20260504050415 | 5 | 353 | 0.0 | 0.0 | 0.00 | 0.00 | 0.00 | 92 | 1017.8 |
| 20260504045912 | 6 | 353 | 0.0 | 0.0 | 0.00 | 0.00 | 0.00 | 92 | 1017.4 |